Home   Weather   Rio Branco   Past weeks
Flag for Brazil

Past Weather in Rio Branco, Acre, Brazil — Yesterday and Last 2 Weeks

Now
75 °F

Thunderstorms. Partly cloudy.


Feels Like: 73 °F
Forecast: 83 / 74 °F
Wind: 2 mph from North

Location: Rio Branco Airport

Current Time: Mar 23, 2019 at 10:43:30 pm

Latest Report: Mar 23, 2019 at 10:00 pm


Visibility: 3 mi

Pressure: 29.98 "Hg

Humidity: 100%

Dew Point: 75 °F

Location of Rio BrancoLocation

Past Weather in Rio Branco — Graph

°F

Rio Branco Temperature Yesterday

Maximum temperature yesterday: 84 °F (at 2:00 pm)
Minimum temperature yesterday: 73 °F (at 3:00 am)
Average temperature yesterday: 77 °F

High & Low Weather Summary for the Past Weeks

 TemperatureHumidityPressure
High88 °F (Mar 12, 2:00 pm)100% (Mar 8, 10:00 pm)30.01 "Hg (Mar 8, 10:00 pm)
Low70 °F (Mar 12, 1:00 am)22% (Mar 23, 6:00 pm)29.74 "Hg (Mar 15, 4:00 pm)
Average78 °F91%29.88 "Hg
* Reported Mar 8 9:00 pm — Mar 23 9:00 pm, Rio Branco. Weather by CustomWeather, © 2019

Note: Actual official high and low records may vary slightly from our data, if they occured in-between our weather recording intervals... More about our weather records

Advertising

Rio Branco Weather History for the Previous 24 Hours

Scroll right to see more
 ConditionsComfort  
Time TempWeatherWind HumidityBarometerVisibility
9:00 pm
Sat, Mar 23
75 °FThunderstorms. Partly cloudy.2 mph100%N/AN/A
8:00 pm77 °FPartly cloudy.2 mph94%29.92 "HgN/A
7:00 pm77 °FThunderstorms. Partly cloudy.3 mph100%29.89 "HgN/A
6:00 pm77 °FThunderstorms. Partly cloudy.8 mph22%N/AN/A
5:05 pm81 °FThunderstorms. Partly sunny.8 mph89%29.83 "HgN/A
4:00 pm86 °FScattered clouds.6 mph75%29.83 "HgN/A
3:00 pm86 °FPartly sunny.5 mph70%29.83 "HgN/A
2:00 pm88 °FPartly sunny.7 mph70%29.86 "HgN/A
1:00 pm86 °FPartly sunny.5 mph75%29.89 "HgN/A
12:00 pm86 °FPartly sunny.7 mph75%29.95 "HgN/A
11:00 am81 °FPartly sunny.7 mph84%29.98 "HgN/A
10:00 am81 °FPartly sunny.7 mph84%30.01 "HgN/A
9:23 am79 °FPartly sunny.8 mph89%30.01 "HgN/A
8:00 am77 °FBroken clouds.7 mph100%N/AN/A
7:00 am77 °FPartly sunny.6 mph94%N/AN/A
6:00 am75 °FPartly sunny.3 mph100%29.95 "HgN/A
5:00 am75 °FPassing clouds.3 mph100%29.92 "HgN/A
4:00 am75 °FPassing clouds.6 mph100%29.89 "HgN/A
3:15 am75 °FPassing clouds.3 mph100%29.89 "HgN/A
3:00 am75 °FPassing clouds.3 mph100%29.89 "HgN/A
2:00 am75 °FPassing clouds.2 mph100%29.89 "HgN/A
1:00 am75 °FPartly cloudy.2 mph100%29.92 "HgN/A
12:00 am75 °FClear.1 mph100%29.92 "Hg10 mi
11:00 pm
Fri, Mar 22
75 °FClear.2 mph100%29.92 "Hg10 mi
10:00 pm75 °FClear.1 mph100%29.95 "Hg10 mi
Weather by CustomWeather, © 2019

See weather overview